Date String (YYYY-MM-DD hh:mm:ss) UTC,Instrument flags,Ambient pressure (hPa),Sample flow (lpm),Bypass flow (lpm),Sample temperature (°C),Ambient temperature (°C),ASC tube jacket temperature (°C),LED temperature (°C),Box temperature (°C),Sample RH (%),Span deviation,Mass concentration (μg/m³),Mass concentration (μg/m³),Mass concentration (μg/m³)
DateTimeUTC,F1_M11,P_M11,Q1_M11,Q2_M11,T1_M11,T2_M11,T3_M11,T4_M11,T5_M11,U1_M11,ZSPAN_M11,X0_M11,X2_M11,X1_M11
2022-06-19 09:00:00,,0823.2,4.99,0.00,29.4,27.6,00.0,38.3,31.2,22.2,0000.0,0007.39,0003.56,0002.41
2022-06-19 09:01:00,,0823.2,4.98,0.00,29.4,27.8,00.0,38.3,31.3,22.2,0000.0,0007.43,0003.60,0002.44
2022-06-19 09:02:00,,0823.3,5.00,0.00,29.4,27.9,00.0,38.3,31.3,22.2,0000.0,0007.26,0003.58,0002.45
2022-06-19 09:03:00,,0823.3,5.00,0.00,29.4,28.0,00.0,38.3,31.3,22.2,0000.0,0007.06,0003.54,0002.43
2022-06-19 09:04:00,,0823.3,5.00,0.00,29.4,28.1,00.0,38.3,31.3,22.2,0000.0,0006.97,0003.55,0002.43
2022-06-19 09:05:00,,0823.3,5.01,0.00,29.5,28.2,00.0,38.3,31.4,22.1,0000.0,0007.13,0003.57,0002.42
2022-06-19 09:06:00,,0823.4,4.99,0.00,29.5,28.3,00.0,38.3,31.4,22.0,0000.0,0007.14,0003.56,0002.41
2022-06-19 09:07:00,,0823.4,5.01,0.00,29.5,28.4,00.0,38.3,31.4,22.0,0000.0,0007.12,0003.55,0002.41
2022-06-19 09:08:00,,0823.3,5.01,0.00,29.5,28.4,00.0,38.3,31.4,22.0,0000.0,0007.27,0003.58,0002.43
2022-06-19 09:09:00,,0823.3,5.01,0.00,29.5,28.5,00.0,38.3,31.4,21.9,0000.0,0007.31,0003.57,0002.43
2022-06-19 09:10:00,,0823.3,4.99,0.00,29.5,28.5,00.0,38.4,31.5,21.9,0000.0,0007.36,0003.59,0002.42
2022-06-19 09:11:00,,0823.3,5.00,0.00,29.6,28.6,00.0,38.4,31.5,21.8,0000.0,0007.41,0003.60,0002.42
2022-06-19 09:12:00,,0823.3,4.99,0.00,29.6,28.6,00.0,38.4,31.5,21.8,0000.0,0007.34,0003.57,0002.41
2022-06-19 09:13:00,,0823.3,5.00,0.00,29.6,28.7,00.0,38.4,31.5,21.8,0000.0,0007.35,0003.58,0002.41
2022-06-19 09:14:00,,0823.3,5.00,0.00,29.6,28.7,00.0,38.4,31.6,21.7,0000.0,0007.50,0003.62,0002.42
2022-06-19 09:15:00,,0823.4,5.00,0.00,29.7,28.8,00.0,38.4,31.6,21.7,0000.0,0007.62,0003.65,0002.42
2022-06-19 09:16:00,,0823.4,5.01,0.00,29.7,28.8,00.0,38.4,31.6,21.7,0000.0,0007.60,0003.63,0002.39
2022-06-19 09:17:00,,0823.3,5.01,0.00,29.7,28.6,00.0,38.4,31.6,21.7,0000.0,0007.63,0003.63,0002.40
2022-06-19 09:18:00,,0823.2,5.00,0.00,29.7,27.8,00.0,38.4,31.4,21.7,0000.0,0007.67,0003.66,0002.40
2022-06-19 09:19:00,,0823.3,4.99,0.00,29.6,27.4,00.0,38.3,31.3,21.7,0000.0,0007.70,0003.67,0002.38
2022-06-19 09:20:00,,0823.3,5.00,0.00,29.5,27.4,00.0,38.3,31.2,21.8,0000.0,0007.78,0003.70,0002.36
2022-06-19 09:21:00,,0823.3,5.00,0.00,29.5,27.5,00.0,38.3,31.2,21.9,0000.0,0007.90,0003.72,0002.35
2022-06-19 09:22:00,,0823.3,5.01,0.00,29.4,27.6,00.0,38.3,31.2,21.9,0000.0,0007.80,0003.70,0002.35
2022-06-19 09:23:00,,0823.3,5.00,0.00,29.4,27.7,00.0,38.3,31.2,22.0,0000.0,0007.66,0003.65,0002.33
2022-06-19 09:24:00,,0823.3,5.00,0.00,29.4,27.8,00.0,38.3,31.3,22.0,0000.0,0007.51,0003.60,0002.30
2022-06-19 09:25:00,,0823.3,5.00,0.00,29.4,27.9,00.0,38.3,31.3,22.0,0000.0,0007.41,0003.56,0002.29
2022-06-19 09:26:00,,0823.4,5.00,0.00,29.4,28.0,00.0,38.3,31.3,22.0,0000.0,0007.28,0003.52,0002.29
2022-06-19 09:27:00,,0823.4,5.01,0.00,29.4,28.1,00.0,38.3,31.3,22.0,0000.0,0007.30,0003.54,0002.30
2022-06-19 09:28:00,,0823.4,5.01,0.00,29.5,28.2,00.0,38.3,31.4,22.0,0000.0,0007.32,0003.55,0002.31
2022-06-19 09:29:00,,0823.4,4.99,0.00,29.5,28.3,00.0,38.3,31.4,22.0,0000.0,0007.37,0003.55,0002.29
2022-06-19 09:30:00,,0823.4,5.01,0.00,29.5,28.4,00.0,38.3,31.4,22.0,0000.0,0007.44,0003.55,0002.29
2022-06-19 09:31:00,,0823.4,5.00,0.00,29.5,28.4,00.0,38.3,31.4,22.0,0000.0,0007.37,0003.52,0002.28
2022-06-19 09:32:00,,0823.4,5.00,0.00,29.5,28.5,00.0,38.3,31.5,22.0,0000.0,0007.20,0003.49,0002.29
2022-06-19 09:33:00,,0823.4,5.00,0.00,29.5,28.5,00.0,38.4,31.5,22.1,0000.0,0006.91,0003.44,0002.28
2022-06-19 09:34:00,,0823.4,5.00,0.00,29.6,28.6,00.0,38.4,31.5,22.1,0000.0,0006.91,0003.46,0002.27
2022-06-19 09:35:00,,0823.4,4.99,0.00,29.6,28.6,00.0,38.4,31.5,22.2,0000.0,0006.94,0003.45,0002.27
2022-06-19 09:36:00,,0823.4,5.00,0.00,29.6,28.7,00.0,38.4,31.5,22.1,0000.0,0007.02,0003.46,0002.28
2022-06-19 09:37:00,,0823.3,4.99,0.00,29.6,28.7,00.0,38.4,31.5,22.1,0000.0,0006.97,0003.47,0002.26
2022-06-19 09:38:00,,0823.4,5.01,0.00,29.6,28.7,00.0,38.4,31.6,22.1,0000.0,0007.06,0003.48,0002.24
2022-06-19 09:39:00,,0823.4,5.00,0.00,29.7,28.7,00.0,38.4,31.6,22.1,0000.0,0007.00,0003.47,0002.23
2022-06-19 09:40:00,,0823.4,5.01,0.00,29.7,28.8,00.0,38.5,31.6,22.1,0000.0,0006.88,0003.46,0002.23
2022-06-19 09:41:00,,0823.4,4.99,0.00,29.7,28.8,00.0,38.5,31.7,22.1,0000.0,0006.67,0003.44,0002.22
2022-06-19 09:42:00,,0823.4,5.01,0.00,29.7,28.8,00.0,38.5,31.7,22.1,0000.0,0006.47,0003.42,0002.22
2022-06-19 09:43:00,,0823.4,4.99,0.00,29.7,28.3,00.0,38.5,31.5,22.1,0000.0,0006.46,0003.41,0002.21
2022-06-19 09:44:00,,0823.4,5.00,0.00,29.6,27.6,00.0,38.4,31.3,22.2,0000.0,0006.45,0003.42,0002.21
2022-06-19 09:45:00,,0823.3,5.00,0.00,29.6,27.4,00.0,38.4,31.3,22.3,0000.0,0006.51,0003.43,0002.21
2022-06-19 09:46:00,,0823.4,5.00,0.00,29.5,27.4,00.0,38.4,31.2,22.5,0000.0,0006.55,0003.44,0002.21
2022-06-19 09:47:00,,0823.4,5.00,0.00,29.5,27.5,00.0,38.3,31.2,22.6,0000.0,0006.58,0003.44,0002.20
2022-06-19 09:48:00,,0823.4,5.01,0.00,29.4,27.6,00.0,38.3,31.2,22.6,0000.0,0006.64,0003.44,0002.20
2022-06-19 09:49:00,,0823.4,5.00,0.00,29.4,27.7,00.0,38.3,31.2,22.7,0000.0,0006.53,0003.42,0002.20
2022-06-19 09:50:00,,0823.4,5.00,0.00,29.4,27.9,00.0,38.3,31.3,22.8,0000.0,0006.57,0003.42,0002.20
2022-06-19 09:51:00,,0823.4,5.00,0.00,29.4,28.0,00.0,38.3,31.3,22.8,0000.0,0006.69,0003.44,0002.18
2022-06-19 09:52:00,,0823.3,5.00,0.00,29.5,28.1,00.0,38.3,31.3,22.8,0000.0,0006.65,0003.43,0002.18
2022-06-19 09:53:00,,0823.3,5.00,0.00,29.5,28.2,00.0,38.3,31.4,22.8,0000.0,0006.93,0003.45,0002.18
2022-06-19 09:54:00,,0823.4,5.00,0.00,29.5,28.3,00.0,38.3,31.4,22.8,0000.0,0006.98,0003.46,0002.18
2022-06-19 09:55:00,,0823.4,5.00,0.00,29.5,28.4,00.0,38.3,31.4,22.7,0000.0,0006.98,0003.45,0002.18
2022-06-19 09:56:00,,0823.5,5.00,0.00,29.5,28.4,00.0,38.3,31.4,22.7,0000.0,0006.92,0003.42,0002.16
2022-06-19 09:57:00,,0823.6,4.99,0.00,29.5,28.5,00.0,38.4,31.5,22.6,0000.0,0006.80,0003.39,0002.15
2022-06-19 09:58:00,,0823.6,5.00,0.00,29.6,28.5,00.0,38.4,31.5,22.6,0000.0,0006.83,0003.38,0002.15
2022-06-19 09:59:00,,0823.7,5.01,0.00,29.6,28.6,00.0,38.4,31.5,22.5,0000.0,0006.90,0003.41,0002.16
